Date String (YYYY-MM-DD hh:mm:ss) UTC,Instrument flags,Ambient pressure (hPa),Sample flow (lpm),Bypass flow (lpm),Sample temperature (°C),Ambient temperature (°C),ASC tube jacket temperature (°C),LED temperature (°C),Box temperature (°C),Sample RH (%),Span deviation,Mass concentration (μg/m³),Mass concentration (μg/m³),Mass concentration (μg/m³)
DateTimeUTC,F1_M11,P_M11,Q1_M11,Q2_M11,T1_M11,T2_M11,T3_M11,T4_M11,T5_M11,U1_M11,ZSPAN_M11,X0_M11,X2_M11,X1_M11
2022-12-14 00:00:00,,0811.8,5.01,0.00,21.1,20.3,00.0,29.8,22.9,09.9,0000.0,0019.69,0006.41,0004.62
2022-12-14 00:01:00,,0811.9,5.01,0.00,21.1,20.0,00.0,29.8,22.8,09.9,0000.0,0019.34,0006.36,0004.63
2022-12-14 00:02:00,,0811.9,5.00,0.00,21.1,19.8,00.0,29.8,22.8,09.9,0000.0,0018.90,0006.37,0004.64
2022-12-14 00:03:00,,0812.0,5.01,0.00,21.1,19.6,00.0,29.8,22.8,09.9,0000.0,0019.16,0006.37,0004.64
2022-12-14 00:04:00,,0812.0,4.97,0.00,21.1,19.5,00.0,29.8,22.7,10.0,0000.6,0018.33,0006.39,0004.64
2022-12-14 00:05:00,,0812.1,5.03,0.00,21.0,19.4,00.0,29.8,22.7,10.0,0000.4,0018.67,0006.44,0004.65
2022-12-14 00:06:00,,0812.1,4.98,0.00,21.0,19.4,00.0,29.8,22.7,10.0,0001.7,0019.55,0006.53,0004.66
2022-12-14 00:07:00,,0812.1,5.00,0.00,21.0,19.4,00.0,29.8,22.7,10.0,0001.7,0019.52,0006.61,0004.66
2022-12-14 00:08:00,,0812.0,5.01,0.00,21.0,19.4,00.0,29.8,22.7,10.0,0001.9,0019.79,0006.64,0004.67
2022-12-14 00:09:00,,0812.1,4.98,0.00,21.0,19.4,00.0,29.8,22.7,10.0,0002.1,0019.42,0006.61,0004.67
2022-12-14 00:10:00,,0812.1,5.04,0.00,21.1,20.4,00.0,29.8,22.9,10.0,0002.6,0020.63,0006.54,0004.66
2022-12-14 00:11:00,,0812.2,4.97,0.00,21.2,21.5,00.0,29.9,23.1,10.0,0002.0,0020.92,0006.52,0004.64
2022-12-14 00:12:00,,0812.1,4.98,0.00,21.3,21.7,00.0,29.9,23.2,09.9,0001.4,0021.44,0006.54,0004.66
2022-12-14 00:13:00,,0812.1,5.03,0.00,21.3,21.2,00.0,29.9,23.2,09.9,0001.7,0021.48,0006.53,0004.66
2022-12-14 00:14:00,,0812.2,4.98,0.00,21.3,20.8,00.0,30.0,23.1,09.9,0001.9,0020.53,0006.53,0004.66
2022-12-14 00:15:00,,0812.1,5.01,0.00,21.3,20.4,00.0,30.0,23.1,09.9,0001.5,0020.67,0006.52,0004.67
2022-12-14 00:16:00,,0812.0,5.01,0.00,21.3,20.2,00.0,30.0,23.0,09.9,0000.9,0020.83,0006.52,0004.68
2022-12-14 00:17:00,,0812.1,5.00,0.00,21.3,19.9,00.0,30.0,23.0,10.0,0000.0,0020.91,0006.59,0004.70
2022-12-14 00:18:00,,0812.0,4.99,0.00,21.2,19.6,00.0,30.0,22.9,10.0,0000.0,0021.80,0006.57,0004.71
2022-12-14 00:19:00,,0812.1,5.00,0.00,21.2,19.4,00.0,30.0,22.8,10.1,0000.0,0022.64,0006.64,0004.72
2022-12-14 00:20:00,,0812.1,5.04,0.00,21.2,19.3,00.0,30.0,22.8,10.1,0000.0,0022.76,0006.72,0004.73
2022-12-14 00:21:00,,0812.1,4.96,0.00,21.1,19.2,00.0,30.0,22.7,10.2,0000.0,0022.28,0006.73,0004.74
2022-12-14 00:22:00,,0812.1,5.06,0.00,21.1,19.2,00.0,30.0,22.7,10.2,0000.0,0020.83,0006.79,0004.77
2022-12-14 00:23:00,,0812.2,4.97,0.00,21.1,19.8,00.0,29.9,22.8,10.2,0000.0,0020.81,0006.82,0004.78
2022-12-14 00:24:00,,0812.2,5.03,0.00,21.2,21.2,00.0,30.0,23.1,10.2,0000.0,0019.98,0006.86,0004.80
2022-12-14 00:25:00,,0812.2,4.98,0.00,21.3,21.8,00.0,30.0,23.3,10.1,0000.0,0020.40,0006.85,0004.82
2022-12-14 00:26:00,,0812.2,5.00,0.00,21.4,21.5,00.0,30.0,23.3,10.1,0000.0,0021.52,0006.92,0004.85
2022-12-14 00:27:00,,0812.2,5.01,0.00,21.4,21.1,00.0,30.1,23.2,10.1,0000.0,0022.94,0006.99,0004.88
2022-12-14 00:28:00,,0812.2,5.02,0.00,21.4,20.7,00.0,30.1,23.2,10.1,0000.0,0022.68,0007.06,0004.91
2022-12-14 00:29:00,,0812.2,4.97,0.00,21.4,20.4,00.0,30.1,23.2,10.1,0000.0,0022.55,0007.03,0004.93
2022-12-14 00:30:00,,0812.2,5.01,0.00,21.4,20.2,00.0,30.1,23.1,10.1,-000.1,0022.29,0007.03,0004.96
2022-12-14 00:31:00,,0812.2,5.00,0.00,21.4,20.0,00.0,30.1,23.1,10.1,-000.6,0021.82,0007.01,0004.98
2022-12-14 00:32:00,,0812.2,5.00,0.00,21.3,19.9,00.0,30.1,23.1,10.1,-000.0,0022.51,0007.02,0005.01
2022-12-14 00:33:00,,0812.2,5.01,0.00,21.3,19.7,00.0,30.1,23.0,10.1,0000.0,0023.77,0007.06,0005.04
2022-12-14 00:34:00,,0812.1,5.00,0.00,21.3,19.6,00.0,30.1,23.0,10.2,-000.1,0024.43,0007.12,0005.06
2022-12-14 00:35:00,,0812.2,5.00,0.00,21.3,19.5,00.0,30.1,22.9,10.2,0000.3,0024.44,0007.16,0005.07
2022-12-14 00:36:00,,0812.2,5.00,0.00,21.3,19.4,00.0,30.1,22.9,10.3,0000.6,0025.37,0007.20,0005.09
2022-12-14 00:37:00,,0812.2,5.00,0.00,21.2,19.3,00.0,30.1,22.9,10.3,0000.9,0026.17,0007.19,0005.10
2022-12-14 00:38:00,,0812.3,5.01,0.00,21.2,20.0,00.0,30.0,23.0,10.2,0001.3,0025.11,0007.11,0005.10
2022-12-14 00:39:00,,0812.3,4.98,0.00,21.3,21.3,00.0,30.1,23.2,10.2,0001.2,0025.35,0007.06,0005.09
2022-12-14 00:40:00,,0812.3,5.03,0.00,21.5,21.9,00.0,30.1,23.4,10.2,0000.8,0025.01,0007.03,0005.10
2022-12-14 00:41:00,,0812.3,4.98,0.00,21.5,21.4,00.0,30.1,23.4,10.1,0000.3,0024.84,0007.01,0005.11
2022-12-14 00:42:00,,0812.3,5.03,0.00,21.5,20.9,00.0,30.2,23.3,10.2,-001.2,0025.22,0007.04,0005.13
2022-12-14 00:43:00,,0812.3,4.98,0.00,21.5,20.5,00.0,30.2,23.2,10.2,-001.5,0024.93,0007.06,0005.14
2022-12-14 00:44:00,,0812.3,5.01,0.00,21.4,20.2,00.0,30.2,23.2,10.2,-001.1,0025.68,0007.10,0005.13
2022-12-14 00:45:00,,0812.3,5.00,0.00,21.4,20.0,00.0,30.2,23.1,10.1,-000.3,0027.02,0007.16,0005.15
2022-12-14 00:46:00,,0812.3,5.00,0.00,21.4,19.8,00.0,30.2,23.1,10.2,-001.0,0027.56,0007.17,0005.16
2022-12-14 00:47:00,,0812.3,5.00,0.00,21.4,19.6,00.0,30.2,23.0,10.2,-001.0,0026.97,0007.18,0005.18
2022-12-14 00:48:00,,0812.3,5.00,0.00,21.3,19.5,00.0,30.2,23.0,10.2,-000.1,0025.52,0007.24,0005.21
2022-12-14 00:49:00,,0812.4,4.99,0.00,21.3,19.4,00.0,30.1,22.9,10.2,0000.0,0025.43,0007.34,0005.24
2022-12-14 00:50:00,,0812.4,4.99,0.00,21.2,19.3,00.0,30.1,22.9,10.3,-000.2,0024.41,0007.33,0005.26
2022-12-14 00:51:00,,0812.4,5.04,0.00,21.2,19.3,00.0,30.1,22.8,10.3,-000.2,0025.77,0007.38,0005.28
2022-12-14 00:52:00,,0812.4,4.96,0.00,21.2,20.1,00.0,30.1,23.0,10.3,-000.3,0026.41,0007.43,0005.29
2022-12-14 00:53:00,,0812.4,5.03,0.00,21.3,21.3,00.0,30.1,23.2,10.3,0000.2,0027.51,0007.40,0005.28
2022-12-14 00:54:00,,0812.4,4.98,0.00,21.4,21.6,00.0,30.1,23.4,10.2,0000.5,0027.48,0007.43,0005.27
2022-12-14 00:55:00,,0812.4,5.02,0.00,21.5,21.2,00.0,30.2,23.3,10.2,0000.5,0026.29,0007.42,0005.27
2022-12-14 00:56:00,,0812.4,4.98,0.00,21.5,20.7,00.0,30.2,23.3,10.2,0000.2,0024.66,0007.34,0005.26
2022-12-14 00:57:00,,0812.4,5.01,0.00,21.4,20.4,00.0,30.2,23.2,10.2,0000.5,0024.70,0007.34,0005.25
2022-12-14 00:58:00,,0812.4,5.00,0.00,21.4,20.2,00.0,30.2,23.2,10.2,0001.0,0026.16,0007.40,0005.24
2022-12-14 00:59:00,,0812.3,5.00,0.00,21.4,19.9,00.0,30.2,23.1,10.2,0000.6,0026.23,0007.40,0005.23
